#timestamp,LO_Frequency,Hit 
1500789615.0,286047005.7,N
1500789615.9,286047005.7,N
1500789635.7,286047005.0,N
1500789655.6,286047004.7,N
1500789675.4,286047004.7,N
1500789695.3,286047007.2,N
1500789715.1,286047005.2,N
1500789735.8,286047005.3,N
1500789755.7,286047005.3,N
1500789775.5,286047004.6,N
1500789795.4,286047006.7,N
1500789815.2,286047005.5,N
1500789835.0,286047007.5,N
1500789835.9,286047007.5,N
1500789855.8,286047006.2,N
1500789875.6,286047006.2,N
1500789895.4,286047006.7,N
1500789915.3,286047007.5,N
1500789935.1,286047007.6,N
1500789955.9,286047005.8,N
1500789975.7,286047005.1,N
1500789995.5,286047005.7,N
1500790015.4,286047005.0,N
1500790035.2,286047007.3,N
1500790055.0,286047007.0,N
1500790055.9,286047007.0,N
1500790075.8,286047007.2,N
1500790095.6,286047007.1,N
1500790115.5,286047007.0,N
1500790135.3,286047007.2,N
1500790155.1,286047004.5,N
1500790175.9,286047007.3,N
1500790195.7,286047007.4,N
1500790215.6,286047003.5,N
1500790235.4,286047011.9,N
1500790255.2,286047003.0,N
1500790275.1,286047003.1,N
1500790276.0,286047003.1,N
1500790295.8,286047004.1,N
1500790315.6,286047004.3,N
1500790335.5,286047003.6,N
1500790355.3,286047003.8,N
1500790375.2,286047003.4,N
1500790395.9,286047002.9,N
1500790415.7,286047004.3,N
1500790435.6,286047001.7,N
1500790455.4,286047003.9,N
1500790475.2,286047003.9,N
1500790495.1,286047003.9,N
1500790496.0,286047003.9,N
1500790515.8,286047003.8,N
1500790535.7,286047003.1,N
1500790555.5,286047003.8,N
1500790575.3,286047003.0,N
1500790595.2,286047007.2,N
1500790615.0,286047006.8,N
1500790615.9,286047006.8,N
1500790635.8,286047004.9,N
1500790655.6,286047007.2,N
1500790675.4,286047004.8,N
1500790695.3,286047003.5,N
1500790715.1,286047001.7,N
1500790735.8,286047003.4,N
1500790755.7,286047001.7,N
1500790775.5,286047004.4,N
1500790795.4,286047004.3,N
1500790815.2,286047003.2,N
1500790835.0,286047003.2,N
1500790835.9,286047003.2,N
1500790855.8,286047004.4,N
1500790875.6,286047005.9,N
1500790895.4,286047001.6,N
1500790915.3,286047001.4,N
1500790935.1,286047004.1,N
1500790955.9,286047004.4,N
1500790975.7,286047001.4,N
1500790995.5,286047004.3,N
1500791015.4,286047003.8,N
1500791035.2,286047003.7,N
1500791055.1,286047004.1,N
1500791056.0,286047004.1,N
1500791075.8,286047001.7,N
1500791095.6,286047001.9,N
1500791115.5,286047002.6,N
1500791135.3,286047002.0,N
1500791155.1,286046999.9,N
1500791175.9,286047001.8,N
1500791195.7,286047001.7,N
1500791215.6,286047002.0,N
1500791235.4,286047001.6,N
1500791255.2,286047005.6,N
1500791275.1,286047003.8,N
1500791276.0,286047003.8,N
1500791295.8,286047003.4,N
1500791315.6,286047003.6,N
1500791335.5,286047004.3,N
1500791355.3,286047003.1,N
1500791375.2,286047004.4,N
1500791395.0,286047001.8,N
1500791395.9,286047001.8,N
1500791415.7,286047004.3,N
1500791435.6,286047002.2,N
1500791455.4,286047002.5,N
1500791475.3,286047007.2,N
1500791495.1,286047003.5,N
1500791496.0,286047003.5,N
1500791515.8,286047003.8,N
1500791535.7,286047004.2,N
1500791555.5,286047004.1,N
1500791575.4,286047003.8,N
1500791595.2,286047001.3,N
1500791615.0,286047001.5,N
1500791615.9,286047001.5,N
1500791635.8,286047002.6,N
1500791655.6,286047004.3,N
1500791675.4,286047004.1,N
1500791695.3,286047003.5,N
1500791715.1,286047003.4,N
1500791735.9,286047003.1,N
1500791755.7,286047003.8,N
1500791775.5,286047003.4,N
1500791795.4,286047003.5,N
1500791815.2,286047003.5,N
1500791835.1,286047002.3,N
1500791836.0,286047002.3,N
1500791855.8,286047000.0,N
1500791875.6,286047002.7,N
1500791895.5,286047002.0,N
1500791915.3,286047001.6,N
1500791935.1,286047002.8,N
1500791955.9,286047002.8,N
1500791975.7,286047002.0,N
1500791995.6,286047002.1,N
1500792015.4,286047004.4,N
1500792035.2,286047003.7,N
1500792055.1,286047001.6,N
1500792086.0,286047001.9,Y
1500792095.0,286047002.1,N
1500792095.9,286047002.1,N
1500792115.8,286047000.3,N
1500792135.6,286047000.6,N
1500792155.4,286047000.0,N
1500792175.3,286047002.6,N
1500792195.1,286047002.7,N
1500792215.9,286047001.6,N
1500792235.7,286047000.1,N
1500792255.5,286047000.3,N
1500792275.4,286046999.7,N
1500792295.2,286047002.5,N
1500792315.1,286047002.3,N
1500792316.0,286047002.3,N
1500792335.8,286047001.0,N
1500792355.6,286046999.8,N
1500792375.5,286047000.6,N
1500792395.3,286047002.6,N
1500792415.2,286047001.9,N
1500792435.9,286047002.3,N
1500792455.7,286046998.2,N
1500792475.6,286047000.4,N
1500792495.4,286047000.1,N
1500792515.2,286047002.2,N
1500792535.1,286047002.1,N
1500792536.0,286047002.1,N
1500792555.8,286047001.8,N
1500792575.7,286047004.1,N
1500792595.5,286047001.3,N
1500792615.3,286047001.6,N
1500792635.2,286047000.6,N
1500792655.0,286047000.1,N
1500792655.9,286047000.1,N
1500792675.8,286046998.2,N
1500792695.6,286047000.8,N
1500792715.4,286047002.1,N
1500792735.3,286047001.6,N
1500792755.1,286047002.2,N
1500792775.8,286046999.8,N
1500792795.7,286047001.2,N
1500792815.5,286047001.1,N
1500792835.4,286046998.4,N
1500792855.2,286047001.2,N
1500792875.0,286046999.6,N
1500792875.9,286046999.6,N
1500792895.8,286046999.2,N
1500792915.6,286047001.2,N
1500792935.5,286047000.8,N
1500792955.3,286047002.8,N
1500792975.1,286046999.9,N
1500792995.9,286046998.8,N
1500793015.7,286047000.2,N
1500793035.5,286046998.7,N
1500793055.4,286046999.3,N
1500793075.2,286046998.8,N
1500793095.1,286046998.7,N
1500793096.0,286046998.7,N
1500793115.8,286046999.6,N
1500793135.6,286046999.3,N
1500793155.5,286047000.7,N
1500793175.3,286046999.2,N
1500793195.1,286046996.6,N
